Regional Weather Roundup
Issued by NWS Northern Indiana

Home | Current Version | Previous Version | Graphics & Text | Print | Product List | Glossary On
Versions: 1 2 3 4 5 6 7 8 9 10 11 12 13 14 15 16 17 18 19 20 21 22 23 24 25 26 27 28 29 30 31 32 33 34 35 36 37 38 39 40 41 42 43 44 45 46 47 48 49 50
000
ASUS43 KIWX 090500
RWRIWX

KIWX WEATHER ROUNDUP
NATIONAL WEATHER SERVICE NORTHERN INDIANA
1200 AM EST FRI DEC 09 2016

NOTE: "FAIR" INDICATES FEW OR NO CLOUDS BELOW 12,000 FEET WITH NO
SIGNIFICANT WEATHER AND/OR OBSTRUCTIONS TO VISIBILITY.

* THESE STATIONS ARE NOT UNDER NWS QUALITY CONTROL. THEY ALSO MAY NOT
  REPORT WEATHER SUCH AS PRECIPITATION OR FOG.

INZ001>027-090600-
NORTHERN INDIANA

CITY           SKY/WX    TMP DP  RH WIND       PRES   REMARKS
SOUTH BEND     LGT SNOW  21  19  92 SW10      30.36S FOG     WCI  10
GOSHEN         CLOUDY    22  15  75 SW17      30.35R WCI   8
ANGOLA*        PTCLDY    19  18  93 W12       30.29S WCI   7
FORT WAYNE     FLURRIES  22  15  75 W18G25    30.38R WCI   7
PERU/GRISSOM   FLURRIES  21  17  84 W12       30.42R WCI   9

$$
INZ028>050-090600-
CENTRAL INDIANA

CITY           SKY/WX    TMP DP  RH WIND       PRES   REMARKS
LAFAYETTE      FLURRIES  21  16  81 W12       30.47R WCI   9
KOKOMO*        FLURRIES  21  17  84 W14       30.44R WCI   8
MUNCIE*        FLURRIES  21  16  81 W9        30.43R WCI  11
INDIANAPOLIS   FLURRIES  21  15  78 W10       30.46S WCI  10

$$
MIZ043>046-050>051-056>058-064>065-071>073-077>080-090600-
SOUTHWEST LOWER MICHIGAN

CITY           SKY/WX    TMP DP  RH WIND       PRES   REMARKS
BATTLE CREEK   CLOUDY    26  23  88 W12       30.27R WCI  16
BENTON HARBOR  LGT SNOW  29  21  72 W13G25    30.34R WCI  19
COLDWATER*     CLOUDY    22  19  90 SW7       30.30R WCI  13
HILLSDALE*     CLOUDY    21  19  93 W12G17    30.26R WCI   9
HOLLAND        LGT SNOW  31  26  82 NW9       30.28R WCI  23
GRAND RAPIDS   CLOUDY    28  25  88 W7        30.26R WCI  21
KALAMAZOO      CLOUDY    26  22  84 SW9       30.28S WCI  17
STURGIS*       PTCLDY    20  18  89 W12       30.31R WCI   8
THREE RIVERS*  LGT SNOW  22  19  89 SW9       30.31S WCI  12

$$
OHZ001>008-015>018-024>025-090600-
NORTHWEST OHIO

CITY           SKY/WX    TMP DP  RH WIND       PRES   REMARKS
DEFIANCE       CLEAR     22  14  71 W10       30.34R WCI  11
FINDLAY        CLOUDY    22  14  71 W21G26    30.33R WCI   6
TOLEDO EXPRESS CLOUDY    21  17  84 W16       30.30S WCI   7
TOLEDO METCALF MOCLDY    23  17  78 W16G23    30.31R WCI  10
LIMA           CLOUDY    20  15  81 W20       30.34S WCI   4

$$
AND FOR LAKE MICHIGAN COASTAL AND OPEN LAKE BUOY OBSERVATIONS

STATION/POSITION TEMP    WIND        PRES    VSBY  WAVE
                 AIR SEA DIR/SP/G                  HT/PER
                 (F)     (DEG/KT/KT) (MB)    (MI)  (FT/S)
CALUMET HARBOR    23     240/  6/  9 1028.9R
BURNS HARBOR      27     280/ 16/ 23 1029.5S
SAINT JOSEPH      31     290/ 17/ 23 1028.1R

$$
&&



USA.gov is the U.S. government's official web portal to all federal, state and local government web resources and services.